Location: Fouquenies
(49.4624°N, 2.0492°E)
Time: 19:46:06
(UTC+00:00)

Spot 1 - Pass Details

Date: 03 February 2023
Orbit: 575 x 772 km, 98.8° (Epoch: 26 March)

Event Time Altitude Azimuth Distance (km) Brightness Sun altitude
Exits shadow 18:51:54 48° 119° (ESE) 756 4.1 -19.9°
Drops below altitude 10° 18:55:30 10° 177° (S) 1,881 6.5 -20.5°
Sets 18:57:42 0° 183° (S) 2,781 7.5 -20.8°
